« Back
NWS Peachtree City, Ga » Text Product » GA Regional Weather Roundup


Printer-friendly Version
Current Version              Previous Versions:   1  2  3  4  5  6  7  8  9  

Regional Weather Roundup

587
ASUS42 KFFC 221603
RWRGA
WEATHER ROUNDUP FOR GEORGIA
NATIONAL WEATHER SERVICE PEACHTREE CITY GA
1200 PM EDT FRI MAY 22 2015

NOTE: "FAIR" INDICATES FEW OR NO CLOUDS BELOW 12,000 FEET WITH NO
SIGNIFICANT WEATHER AND/OR OBSTRUCTIONS TO VISIBILITY.

* = USE WITH CAUTION. THE STATIONS MARKED WITH AN ASTERISK MAY NOT
REPORT WEATHER SUCH AS PRECIPITATION, FOG, OR THUNDER AND ARE NOT
QUALITY CONTROLLED BY NWS.

THE REMARK "TC" DENOTES TEMPERATURE READING IN DEGREES CELSIUS.

GAZ001>058-221700-
NORTH GEORGIA

CITY           SKY/WX    TMP DP  RH WIND       PRES   REMARKS
ATLANTA        MOSUNNY   69  49  48 VRB7      30.22F
ATHENS         SUNNY     71  48  43 VRB3      30.23S
CHAMBLEE       SUNNY     69  48  47 VRB6      30.23S
PEACHTREE CITY SUNNY     70  48  45 VRB6      30.23S
ROME           SUNNY     66  49  54 VRB6      30.25S
WEST ATLANTA   SUNNY     68  48  48 VRB5      30.23R
GAINESVILLE    SUNNY     68  47  46 VRB6      30.25S
CARTERSVILLE   SUNNY     67  48  50 VRB5      30.25S


CITY           SKY/WX    TMP DP  RH WIND       PRES   REMARKS
DALTON*        SUNNY     63  50  63 N6        30.26S
LAWRENCEVILLE* SUNNY     70  46  43 E12       30.21S
MARIETTA       MOSUNNY   67  50  55 VRB2      30.23S
KENNESAW*      MOSUNNY   66  48  52 VRB5      30.24F
BLAIRSVILLE*     N/A     65  18  16 E5        30.25F
$$

GAZ059>098-102>109-221700-
CENTRAL GEORGIA

CITY           SKY/WX    TMP DP  RH WIND       PRES   REMARKS
AUGUSTA-BUSH   PTSUNNY   73  47  39 VRB6G18   30.19R
AUGUSTA-DANIEL MOSUNNY   73  47  39 E10       30.21R
COLUMBUS       SUNNY     69  48  47 VRB5      30.20S
MACON          SUNNY     73  52  47 NE9       30.19R
ROBINS AFB     SUNNY     72  53  50 E8        30.18S


CITY           SKY/WX    TMP DP  RH WIND       PRES   REMARKS
LAGRANGE*      SUNNY     71  56  59 SE5       30.22S
SYLVANIA*      CLOUDY    74  61  63 E8        30.19R
MILLEDGEVILLE* PTSUNNY   72  55  56 E5        30.20S
$$

GAZ099>101-110>166-221700-
SOUTH GEORGIA

CITY           SKY/WX    TMP DP  RH WIND       PRES   REMARKS
SAVANNAH       PTSUNNY   76  60  57 E9        30.16R
VALDOSTA       NOT AVBL
ALMA           MOSUNNY   72  53  51 N5        30.16R
FT STEWART     PTSUNNY   76  60  58 VRB2      30.14R
ALBANY         MOSUNNY   75  50  41 VRB7      30.20S
HUNTER AFB     CLOUDY    76  61  59 E12       30.14R
MOODY AFB      MOSUNNY   74  52  44 VRB7      30.16R
BRUNSWICK      SUNNY     79  59  50 NE6       30.15F


CITY           SKY/WX    TMP DP  RH WIND       PRES   REMARKS
BAINBRIDGE*    SUNNY     73  54  49 NE7       30.19S
MOULTRIE*      MOSUNNY   72  52  49 NW6       30.18S
VIDALIA*       MOSUNNY   73  57  56 CALM      30.17S
WAYCROSS*      MOSUNNY   76  56  51 CALM      30.15S
DOUGLAS*       MOSUNNY   73  50  43 NW5       30.18S
$$



USA.gov is the U.S. government's official web portal to all federal, state and local government web resources and services.